{"data":{"norad_id":62134,"intl_designator":"2024-222W","name":"STARLINK-32546","alt_names":[],"object_type":"PAYLOAD","status":"ACTIVE","operator":null,"country":"US","launch_date":"2024-11-27","launch_site_code":"AFETR","launch_vehicle":null,"mission":null,"orbit_class":"UNKNOWN","rcs_meters":null,"size_class":null,"mass_kg":null,"dimensions":null,"purposes":["comms"],"wikipedia_slug":null,"has_3d_model":false,"image_url":null,"decayed_at":null,"tle_current":{"epoch":"2026-09-20T23:28:25.920192Z","epoch_age_seconds":140532,"freshness":"FRESH","line1":"1 62134U 24222W   26263.97807778  .00017060  00000+0  62774-3 0  9992","line2":"2 62134  43.0051 110.0197 0001761 260.1511  99.9142 15.27595178102547","mean_motion":15.27595178,"eccentricity":0.0001761,"inclination_deg":43.0051,"raan_deg":110.0197,"arg_perigee_deg":260.1511,"mean_anomaly_deg":99.9142,"bstar":0.00062774,"rev_number":10254,"period_min":94.265812090695,"perigee_km":481.79540115559,"apogee_km":484.21189489182,"semimajor_km":6861.1406480237,"source":"CELESTRAK","updated_at":"2026-09-22T09:00:49.527936Z"}}}